,,Stat5,,Stat1,,Stat2,,Stat3,,Stat4,,Wind1,,Wind1,
time,status,PA1M_AVG,status,PR1M_SUM,status,RH1M_AVG,status,SR1M_AVG,status,TA1M_AVG,status,W1dAve1m,status,W1sAve1m,
2001-11-01, 00:00:01,VALID,919.616,VALID,0,VALID,96.2414,VALID,0,VALID,20.7194,VALID,167,VALID,0.136218,
2001-11-01, 00:01:01,VALID,919.609,VALID,0,VALID,96.2338,VALID,0,VALID,20.7062,VALID,167,VALID,0,
2001-11-01, 00:02:00,VALID,919.599,VALID,0,VALID,96.1854,VALID,-0.0169808,VALID,20.6768,VALID,121,VALID,0.11761,
2001-11-01, 00:03:00,VALID,919.594,VALID,0,VALID,96.1956,VALID,-0.0169808,VALID,20.6518,VALID,86,VALID,0.401242,
2001-11-01, 00:04:01,VALID,919.594,VALID,0,VALID,96.3431,VALID,-0.0339617,VALID,20.6319,VALID,72,VALID,0.489648,
2001-11-01, 00:05:00,VALID,919.573,VALID,0,VALID,96.469,VALID,0,VALID,20.6224,VALID,71,VALID,0.352941,
2001-11-01, 00:06:00,VALID,919.588,VALID,0,VALID,96.5466,VALID,0,VALID,20.6125,VALID,74,VALID,0.246745,
2001-11-01, 00:07:00,VALID,919.581,VALID,0,VALID,96.6776,VALID,0,VALID,20.5998,VALID,75,VALID,0.41887,
2001-11-01, 00:08:01,VALID,919.585,VALID,0,VALID,96.6725,VALID,0.0169808,VALID,20.5899,VALID,78,VALID,0.413462,
2001-11-01, 00:09:00,VALID,919.578,VALID,0,VALID,96.7233,VALID,-0.0169808,VALID,20.56,VALID,92,VALID,0.622596,
2001-11-01, 00:10:00,VALID,919.564,VALID,0,VALID,96.7958,VALID,0,VALID,20.5506,VALID,99,VALID,0.820964,
2001-11-01, 00:11:01,VALID,919.561,VALID,0,VALID,96.8721,VALID,0,VALID,20.5446,VALID,117,VALID,1.57484,
2001-11-01, 00:12:00,VALID,919.551,VALID,0,VALID,96.9649,VALID,0.0169808,VALID,20.5382,VALID,106,VALID,1.1803,
2001-11-01, 00:13:01,VALID,919.545,VALID,0,VALID,97.1099,VALID,0,VALID,20.5091,VALID,125,VALID,1.08923,
2001-11-01, 00:14:01,VALID,919.546,VALID,0,VALID,97.2587,VALID,-0.0169808,VALID,20.487,VALID,110,VALID,0.917863,
2001-11-01, 00:15:00,VALID,919.53,VALID,0,VALID,97.41,VALID,0,VALID,20.4509,VALID,128,VALID,0.752956,
2001-11-01, 00:16:00,VALID,919.517,VALID,0,VALID,97.5791,VALID,0,VALID,20.4283,VALID,133,VALID,0.525893,
2001-11-01, 00:17:00,VALID,919.519,VALID,0,VALID,97.6859,VALID,0,VALID,20.406,VALID,124,VALID,0.652344,
2001-11-01, 00:18:00,VALID,919.505,VALID,0,VALID,97.8182,VALID,0.0169808,VALID,20.3861,VALID,138,VALID,0.520833,
2001-11-01, 00:19:00,VALID,919.512,VALID,0,VALID,97.9123,VALID,0.0169808,VALID,20.3968,VALID,131,VALID,0.852179,
2001-11-01, 00:20:00,VALID,919.525,VALID,0,VALID,98.028,VALID,0,VALID,20.4027,VALID,146,VALID,0.973273,
2001-11-01, 00:21:01,VALID,919.514,VALID,0,VALID,98.1106,VALID,0,VALID,20.396,VALID,145,VALID,0.958705,
2001-11-01, 00:22:01,VALID,919.5,VALID,0,VALID,98.1513,VALID,0,VALID,20.4124,VALID,144,VALID,0.649439,
2001-11-01, 00:23:01,VALID,919.487,VALID,0,VALID,98.1831,VALID,0,VALID,20.4189,VALID,149,VALID,0.989329,
2001-11-01, 00:24:01,VALID,919.481,VALID,0,VALID,98.2429,VALID,0.0169808,VALID,20.4186,VALID,153,VALID,0.676172,
2001-11-01, 00:25:01,VALID,919.481,VALID,0,VALID,98.248,VALID,0.0169808,VALID,20.4221,VALID,143,VALID,0.586372,
2001-11-01, 00:26:01,VALID,919.469,VALID,0,VALID,98.276,VALID,0.0169808,VALID,20.4154,VALID,146,VALID,0.693142,
2001-11-01, 00:27:01,VALID,919.466,VALID,0,VALID,98.2887,VALID,0.0169808,VALID,20.4353,VALID,151,VALID,0.730357,
2001-11-01, 00:28:01,VALID,919.456,VALID,0,VALID,98.3065,VALID,0,VALID,20.441,VALID,159,VALID,0.782306,
2001-11-01, 00:29:01,VALID,919.45,VALID,0,VALID,98.309,VALID,0,VALID,20.4544,VALID,157,VALID,0.7519,
2001-11-01, 00:30:01,VALID,919.439,VALID,0,VALID,98.2874,VALID,0,VALID,20.4412,VALID,151,VALID,0.878005,
2001-11-01, 00:31:01,VALID,919.442,VALID,0,VALID,98.2683,VALID,0.0169808,VALID,20.4544,VALID,145,VALID,0.858203,
2001-11-01, 00:32:01,VALID,919.425,VALID,0,VALID,98.2162,VALID,0,VALID,20.4579,VALID,148,VALID,0.966222,
2001-11-01, 00:33:01,VALID,919.414,VALID,0,VALID,98.1348,VALID,0.0169808,VALID,20.4442,VALID,146,VALID,1.01563,
2001-11-01, 00:34:01,VALID,919.404,VALID,0,VALID,98.0776,VALID,0,VALID,20.4576,VALID,133,VALID,0.704327,
2001-11-01, 00:35:01,VALID,919.383,VALID,0,VALID,98.0064,VALID,0,VALID,20.4778,VALID,135,VALID,0.727764,
2001-11-01, 00:36:01,VALID,919.359,VALID,0,VALID,97.9199,VALID,0,VALID,20.4743,VALID,141,VALID,0.890625,
2001-11-01, 00:37:01,VALID,919.352,VALID,0,VALID,97.8589,VALID,0,VALID,20.4835,VALID,134,VALID,0.809544,
2001-11-01, 00:38:01,VALID,919.35,VALID,0,VALID,97.7915,VALID,0,VALID,20.49,VALID,143,VALID,0.728082,
2001-11-01, 00:39:01,VALID,919.319,VALID,0,VALID,97.7317,VALID,0,VALID,20.4996,VALID,117,VALID,0.619992,
2001-11-01, 00:40:01,VALID,919.315,VALID,0,VALID,97.6872,VALID,0,VALID,20.4964,VALID,126,VALID,0.730078,
2001-11-01, 00:41:01,VALID,919.315,VALID,0,VALID,97.6745,VALID,0,VALID,20.5061,VALID,140,VALID,0.921474,
2001-11-01, 00:42:01,VALID,919.297,VALID,0,VALID,97.6491,VALID,0,VALID,20.5093,VALID,142,VALID,0.984776,
2001-11-01, 00:43:00,VALID,919.291,VALID,0,VALID,97.6389,VALID,0.0169808,VALID,20.5258,VALID,146,VALID,0.813368,
2001-11-01, 00:44:00,VALID,919.279,VALID,0,VALID,97.6249,VALID,0,VALID,20.529,VALID,127,VALID,0.711349,
2001-11-01, 00:45:00,VALID,919.269,VALID,0,VALID,97.5651,VALID,0.0169808,VALID,20.5255,VALID,135,VALID,0.483141,
2001-11-01, 00:46:00,VALID,919.254,VALID,0,VALID,97.5677,VALID,0,VALID,20.522,VALID,142,VALID,0.583265,
2001-11-01, 00:47:00,VALID,919.24,VALID,0,VALID,97.5511,VALID,-0.0169808,VALID,20.519,VALID,150,VALID,0.80152,
2001-11-01, 00:48:00,VALID,919.239,VALID,0,VALID,97.5664,VALID,0.0169808,VALID,20.5121,VALID,140,VALID,0.727196,
2001-11-01, 00:49:00,VALID,919.225,VALID,0,VALID,97.6084,VALID,0,VALID,20.4991,VALID,140,VALID,0.702232,
2001-11-01, 00:50:00,VALID,919.222,VALID,0,VALID,97.6249,VALID,0,VALID,20.4994,VALID,145,VALID,0.909288,
2001-11-01, 00:51:00,VALID,919.233,VALID,0,VALID,97.6618,VALID,0,VALID,20.4967,VALID,127,VALID,0.692708,
2001-11-01, 00:52:00,VALID,919.23,VALID,0,VALID,97.7177,VALID,0.0169808,VALID,20.48,VALID,142,VALID,0.895765,
2001-11-01, 00:53:00,VALID,919.233,VALID,0,VALID,97.7292,VALID,0.0169808,VALID,20.4703,VALID,145,VALID,1.05715,
2001-11-01, 00:54:00,VALID,919.234,VALID,0,VALID,97.7953,VALID,-0.0169808,VALID,20.4611,VALID,146,VALID,1.0683,
2001-11-01, 00:55:00,VALID,919.231,VALID,0,VALID,97.8512,VALID,0.0169808,VALID,20.4547,VALID,144,VALID,0.940104,
2001-11-01, 00:56:00,VALID,919.225,VALID,0,VALID,97.8907,VALID,0,VALID,20.4482,VALID,151,VALID,0.71532,
2001-11-01, 00:57:00,VALID,919.214,VALID,0,VALID,97.9161,VALID,0.0169808,VALID,20.4412,VALID,151,VALID,1.10547,
2001-11-01, 00:58:00,VALID,919.199,VALID,0,VALID,97.9517,VALID,0,VALID,20.445,VALID,143,VALID,1.15582,
2001-11-01, 00:59:00,VALID,919.185,VALID,0,VALID,97.967,VALID,0,VALID,20.4286,VALID,149,VALID,1.45812,
2001-11-01, 01:00:00,VALID,919.162,VALID,0,VALID,97.986,VALID,0,VALID,20.4253,VALID,145,VALID,1.15223,
2001-11-01, 01:01:00,VALID,919.15,VALID,0,VALID,98.0305,VALID,0,VALID,20.4221,VALID,148,VALID,0.969572,
2001-11-01, 01:02:00,VALID,919.135,VALID,0,VALID,98.0674,VALID,0,VALID,20.4154,VALID,145,VALID,0.947002,
2001-11-01, 01:03:00,VALID,919.126,VALID,0,VALID,98.1056,VALID,-0.0169808,VALID,20.4124,VALID,143,VALID,0.945313,
2001-11-01, 01:04:00,VALID,919.118,VALID,0,VALID,98.1068,VALID,0,VALID,20.4062,VALID,153,VALID,1.11406,
2001-11-01, 01:05:00,VALID,919.105,VALID,0,VALID,98.1704,VALID,0,VALID,20.3861,VALID,153,VALID,0.84398,
2001-11-01, 01:06:00,VALID,919.087,VALID,0,VALID,98.1691,VALID,0,VALID,20.3992,VALID,151,VALID,0.719752,
2001-11-01, 01:07:00,VALID,919.068,VALID,0,VALID,98.1691,VALID,-0.0169808,VALID,20.4,VALID,147,VALID,0.766627,
2001-11-01, 01:08:00,VALID,919.058,VALID,0,VALID,98.1564,VALID,0,VALID,20.3997,VALID,148,VALID,0.869191,
2001-11-01, 01:09:00,VALID,919.047,VALID,0,VALID,98.1831,VALID,-0.0169808,VALID,20.3901,VALID,146,VALID,1.24774,
2001-11-01, 01:10:00,VALID,919.022,VALID,0,VALID,98.1704,VALID,0,VALID,20.3833,VALID,150,VALID,1.11275,
2001-11-01, 01:11:00,VALID,919.007,VALID,0,VALID,98.1755,VALID,-0.0339617,VALID,20.4003,VALID,144,VALID,1.14345,
2001-11-01, 01:12:00,VALID,918.996,VALID,0,VALID,98.1641,VALID,-0.0169808,VALID,20.3968,VALID,153,VALID,1.25421,
2001-11-01, 01:13:00,VALID,918.97,VALID,0,VALID,98.159,VALID,0,VALID,20.403,VALID,152,VALID,0.989648,
2001-11-01, 01:14:00,VALID,918.96,VALID,0,VALID,98.131,VALID,0,VALID,20.4129,VALID,161,VALID,1.32232,
2001-11-01, 01:15:00,VALID,918.946,VALID,0,VALID,98.1577,VALID,0,VALID,20.4196,VALID,154,VALID,0.952123,
2001-11-01, 01:16:00,VALID,918.932,VALID,0,VALID,98.1323,VALID,0,VALID,20.4224,VALID,154,VALID,1.14193,
2001-11-01, 01:17:00,VALID,918.928,VALID,0,VALID,98.1068,VALID,0.0339617,VALID,20.4186,VALID,157,VALID,1.45909,
2001-11-01, 01:18:00,VALID,918.922,VALID,0,VALID,98.1221,VALID,-0.0509425,VALID,20.4224,VALID,155,VALID,1.31538,
2001-11-01, 01:19:00,VALID,918.915,VALID,0,VALID,98.1017,VALID,-0.0509425,VALID,20.4261,VALID,153,VALID,1.14576,
2001-11-01, 01:20:00,VALID,918.905,VALID,0,VALID,98.089,VALID,0,VALID,20.4286,VALID,155,VALID,0.826436,
2001-11-01, 01:21:00,VALID,918.899,VALID,0,VALID,98.0865,VALID,0,VALID,20.435,VALID,153,VALID,0.838682,
2001-11-01, 01:22:00,VALID,918.878,VALID,0,VALID,98.0649,VALID,0,VALID,20.4517,VALID,161,VALID,0.961161,
2001-11-01, 01:23:00,VALID,918.871,VALID,0,VALID,98.0216,VALID,-0.0339617,VALID,20.4455,VALID,146,VALID,0.636719,
2001-11-01, 01:24:00,VALID,918.85,VALID,0,VALID,97.9504,VALID,-0.0339617,VALID,20.4455,VALID,143,VALID,1.00501,
2001-11-01, 01:25:00,VALID,918.832,VALID,0,VALID,97.8805,VALID,-0.0169808,VALID,20.4415,VALID,157,VALID,0.741365,
2001-11-01, 01:26:00,VALID,918.834,VALID,0,VALID,97.8106,VALID,-0.101885,VALID,20.4681,VALID,137,VALID,0.463405,
2001-11-01, 01:27:00,VALID,918.826,VALID,0,VALID,97.7203,VALID,-0.0339617,VALID,20.4676,VALID,93,VALID,0.581473,
2001-11-01, 01:28:00,VALID,918.828,VALID,0,VALID,97.6325,VALID,-0.0169808,VALID,20.4708,VALID,81,VALID,0.542869,
2001-11-01, 01:29:00,VALID,918.807,VALID,0,VALID,97.5346,VALID,-0.0169808,VALID,20.4781,VALID,53,VALID,0.294969,
2001-11-01, 01:30:00,VALID,918.802,VALID,0,VALID,97.5461,VALID,-0.0339617,VALID,20.4808,VALID,37,VALID,0.35293,
2001-11-01, 01:31:00,VALID,918.797,VALID,0,VALID,97.4774,VALID,-0.0679233,VALID,20.4805,VALID,71,VALID,0.542318,
2001-11-01, 01:32:00,VALID,918.773,VALID,0,VALID,97.4456,VALID,-0.0339617,VALID,20.4808,VALID,36,VALID,0.298611,
2001-11-01, 01:33:00,VALID,918.771,VALID,0.2,VALID,97.4469,VALID,0,VALID,20.4743,VALID,31,VALID,0.408259,
2001-11-01, 01:34:00,VALID,918.751,VALID,0,VALID,97.3744,VALID,0,VALID,20.4482,VALID,9,VALID,0.499178,
2001-11-01, 01:35:00,VALID,918.758,VALID,0,VALID,97.3108,VALID,-0.0169808,VALID,20.4196,VALID,8,VALID,0.586782,
2001-11-01, 01:36:00,VALID,918.74,VALID,0,VALID,97.3477,VALID,-0.0169808,VALID,20.4065,VALID,13,VALID,0.6252,
2001-11-01, 01:37:00,VALID,918.733,VALID,0,VALID,97.4609,VALID,0,VALID,20.3935,VALID,16,VALID,0.375977,
2001-11-01, 01:38:00,VALID,918.725,VALID,0,VALID,97.5486,VALID,-0.0169808,VALID,20.4065,VALID,17,VALID,0.234835,
2001-11-01, 01:39:00,VALID,918.72,VALID,0,VALID,97.6491,VALID,0,VALID,20.4032,VALID,17,VALID,0.0572917,
2001-11-01, 01:40:00,VALID,918.716,VALID,0,VALID,97.6643,VALID,-0.0509425,VALID,20.3965,VALID,17,VALID,0.126202,
2001-11-01, 01:41:00,VALID,918.698,VALID,0,VALID,97.6084,VALID,-0.0339617,VALID,20.3841,VALID,17,VALID,0,
2001-11-01, 01:42:00,VALID,918.679,VALID,0,VALID,97.5702,VALID,0,VALID,20.368,VALID,23,VALID,0.0581826,
2001-11-01, 01:43:00,VALID,918.669,VALID,0,VALID,97.5689,VALID,-0.0509425,VALID,20.3416,VALID,83,VALID,0.263514,
2001-11-01, 01:44:00,VALID,918.658,VALID,0,VALID,97.602,VALID,0,VALID,20.3252,VALID,139,VALID,0.646267,
2001-11-01, 01:45:00,VALID,918.638,VALID,0,VALID,97.7203,VALID,-0.0169808,VALID,20.3225,VALID,145,VALID,0.635216,
2001-11-01, 01:46:00,VALID,918.635,VALID,0,VALID,97.7737,VALID,0,VALID,20.3123,VALID,165,VALID,0.579883,
2001-11-01, 01:47:00,VALID,918.623,VALID,0,VALID,97.8245,VALID,-0.0339617,VALID,20.3028,VALID,140,VALID,0.771434,
2001-11-01, 01:48:00,VALID,918.611,VALID,0,VALID,97.8932,VALID,0,VALID,20.3128,VALID,138,VALID,0.823718,
2001-11-01, 01:49:00,VALID,918.598,VALID,0,VALID,97.9046,VALID,-0.0169808,VALID,20.3095,VALID,141,VALID,0.461372,
2001-11-01, 01:50:00,VALID,918.574,VALID,0,VALID,97.9466,VALID,-0.0169808,VALID,20.316,VALID,123,VALID,0.158717,
2001-11-01, 01:51:00,VALID,918.573,VALID,0,VALID,97.9288,VALID,-0.0339617,VALID,20.2961,VALID,145,VALID,0.684416,
2001-11-01, 01:52:00,VALID,918.558,VALID,0,VALID,97.9479,VALID,-0.0339617,VALID,20.2966,VALID,145,VALID,0.704564,
2001-11-01, 01:53:00,VALID,918.539,VALID,0,VALID,97.9606,VALID,-0.0339617,VALID,20.2899,VALID,157,VALID,0.697213,
2001-11-01, 01:54:00,VALID,918.534,VALID,0,VALID,97.9644,VALID,-0.0169808,VALID,20.277,VALID,158,VALID,0.862331,
2001-11-01, 01:55:00,VALID,918.523,VALID,0,VALID,97.9415,VALID,-0.0339617,VALID,20.2675,VALID,170,VALID,0.946652,
2001-11-01, 01:56:00,VALID,918.513,VALID,0,VALID,97.9555,VALID,-0.0169808,VALID,20.2611,VALID,159,VALID,0.596788,
2001-11-01, 01:57:00,VALID,918.509,VALID,0,VALID,97.9759,VALID,0,VALID,20.2447,VALID,166,VALID,0.788862,
2001-11-01, 01:58:00,VALID,918.503,VALID,0,VALID,97.9911,VALID,-0.0339617,VALID,20.2447,VALID,166,VALID,0.710115,
2001-11-01, 01:59:00,VALID,918.495,VALID,0,VALID,98.014,VALID,-0.0169808,VALID,20.2449,VALID,172,VALID,0.178043,
2001-11-01, 02:00:00,VALID,918.485,VALID,0,VALID,98.0407,VALID,-0.0169808,VALID,20.2509,VALID,163,VALID,0.0345982,
2001-11-01, 02:01:00,VALID,918.497,VALID,0,VALID,98.042,VALID,0,VALID,20.2544,VALID,162,VALID,0,
2001-11-01, 02:02:00,VALID,918.49,VALID,0,VALID,97.9949,VALID,-0.0169808,VALID,20.2414,VALID,115,VALID,0.0125762,
2001-11-01, 02:03:00,VALID,918.49,VALID,0,VALID,98.014,VALID,0,VALID,20.2449,VALID,113,VALID,0.0994141,
2001-11-01, 02:04:00,VALID,918.487,VALID,0,VALID,97.9835,VALID,0,VALID,20.2318,VALID,110,VALID,0.0190972,
2001-11-01, 02:05:00,VALID,918.475,VALID,0,VALID,97.8958,VALID,-0.0509425,VALID,20.2126,VALID,109,VALID,0,
2001-11-01, 02:06:00,VALID,918.474,VALID,0,VALID,97.911,VALID,-0.0339617,VALID,20.1865,VALID,110,VALID,0.0261161,
2001-11-01, 02:07:00,VALID,918.453,VALID,0,VALID,97.9479,VALID,-0.0169808,VALID,20.194,VALID,114,VALID,0.0392681,
2001-11-01, 02:08:00,VALID,918.435,VALID,0,VALID,98.0191,VALID,-0.0169808,VALID,20.1838,VALID,128,VALID,0.301731,
2001-11-01, 02:09:00,VALID,918.417,VALID,0,VALID,98.0407,VALID,-0.0169808,VALID,20.2039,VALID,144,VALID,0.267428,
2001-11-01, 02:10:00,VALID,918.401,VALID,0,VALID,98.0242,VALID,-0.0509425,VALID,20.1739,VALID,117,VALID,0.26582,
2001-11-01, 02:11:00,VALID,918.387,VALID,0,VALID,97.9822,VALID,-0.0509425,VALID,20.1808,VALID,125,VALID,0.491268,
2001-11-01, 02:12:00,VALID,918.369,VALID,0,VALID,98.0013,VALID,-0.0509425,VALID,20.1644,VALID,125,VALID,0.0604968,
2001-11-01, 02:13:00,VALID,918.341,VALID,0,VALID,97.9784,VALID,-0.0679233,VALID,20.1649,VALID,119,VALID,0.0985577,
2001-11-01, 02:14:00,VALID,918.358,VALID,0,VALID,97.9466,VALID,-0.0169808,VALID,20.1421,VALID,118,VALID,0.576522,
2001-11-01, 02:15:00,VALID,918.343,VALID,0,VALID,97.9657,VALID,-0.0679233,VALID,20.1353,VALID,115,VALID,0.448808,
2001-11-01, 02:16:00,VALID,918.337,VALID,0,VALID,97.9136,VALID,-0.0679233,VALID,20.1453,VALID,113,VALID,0.491343,
2001-11-01, 02:17:00,VALID,918.339,VALID,0,VALID,97.9186,VALID,-0.0339617,VALID,20.1291,VALID,103,VALID,0.419054,
2001-11-01, 02:18:00,VALID,918.326,VALID,0,VALID,97.9288,VALID,-0.0849042,VALID,20.1358,VALID,93,VALID,0.479167,
2001-11-01, 02:19:00,VALID,918.303,VALID,0,VALID,97.9352,VALID,-0.0169808,VALID,20.1324,VALID,122,VALID,0.505273,
2001-11-01, 02:20:00,VALID,918.3,VALID,0,VALID,97.9848,VALID,-0.0339617,VALID,20.1356,VALID,140,VALID,0.451923,
2001-11-01, 02:21:00,VALID,918.285,VALID,0,VALID,98.014,VALID,-0.0509425,VALID,20.1356,VALID,142,VALID,1.09115,
2001-11-01, 02:22:00,VALID,918.271,VALID,0,VALID,98.0051,VALID,-0.0509425,VALID,20.1321,VALID,115,VALID,0.556858,
2001-11-01, 02:23:00,VALID,918.275,VALID,0,VALID,98.0153,VALID,-0.0169808,VALID,20.1286,VALID,139,VALID,0.549342,
2001-11-01, 02:24:00,VALID,918.269,VALID,0,VALID,98.0242,VALID,-0.0509425,VALID,20.145,VALID,125,VALID,0.547081,
2001-11-01, 02:25:00,VALID,918.27,VALID,0,VALID,98.0178,VALID,-0.0339617,VALID,20.1515,VALID,154,VALID,1.12541,
2001-11-01, 02:26:00,VALID,918.261,VALID,0,VALID,97.9517,VALID,-0.0509425,VALID,20.1619,VALID,134,VALID,0.998944,
2001-11-01, 02:27:00,VALID,918.261,VALID,0,VALID,97.8818,VALID,-0.0509425,VALID,20.1746,VALID,145,VALID,0.756123,
2001-11-01, 02:28:00,VALID,918.269,VALID,0,VALID,97.8309,VALID,-0.0169808,VALID,20.1803,VALID,122,VALID,0.835045,
2001-11-01, 02:29:00,VALID,918.261,VALID,0,VALID,97.7673,VALID,-0.0169808,VALID,20.1932,VALID,120,VALID,0.774523,
2001-11-01, 02:30:00,VALID,918.275,VALID,0,VALID,97.7254,VALID,-0.0509425,VALID,20.2131,VALID,134,VALID,0.930088,
2001-11-01, 02:31:00,VALID,918.295,VALID,0,VALID,97.677,VALID,-0.0679233,VALID,20.2357,VALID,132,VALID,0.993832,
2001-11-01, 02:32:00,VALID,918.291,VALID,0,VALID,97.5384,VALID,-0.0679233,VALID,20.2718,VALID,138,VALID,1.09642,
2001-11-01, 02:33:00,VALID,918.292,VALID,0,VALID,97.368,VALID,-0.0169808,VALID,20.2904,VALID,134,VALID,1.06384,
2001-11-01, 02:34:00,VALID,918.292,VALID,0,VALID,97.1836,VALID,0,VALID,20.3101,VALID,104,VALID,0.715545,
2001-11-01, 02:35:00,VALID,918.282,VALID,0,VALID,96.9865,VALID,-0.0169808,VALID,20.3063,VALID,91,VALID,0.517149,
2001-11-01, 02:36:00,VALID,918.281,VALID,0,VALID,96.8174,VALID,-0.0339617,VALID,20.2999,VALID,102,VALID,0.633594,
2001-11-01, 02:37:00,VALID,918.27,VALID,0,VALID,96.7399,VALID,-0.0509425,VALID,20.2842,VALID,104,VALID,0.47678,
2001-11-01, 02:38:00,VALID,918.256,VALID,0,VALID,96.6928,VALID,-0.0849042,VALID,20.2847,VALID,107,VALID,0.42947,
2001-11-01, 02:39:00,VALID,918.249,VALID,0,VALID,96.6483,VALID,-0.0339617,VALID,20.2581,VALID,87,VALID,0.591741,
2001-11-01, 02:40:00,VALID,918.229,VALID,0,VALID,96.7004,VALID,0,VALID,20.2387,VALID,126,VALID,0.572985,
2001-11-01, 02:41:00,VALID,918.22,VALID,0,VALID,96.7208,VALID,-0.0169808,VALID,20.2295,VALID,111,VALID,0.571157,
2001-11-01, 02:42:00,VALID,918.182,VALID,0,VALID,96.7818,VALID,-0.0509425,VALID,20.2166,VALID,130,VALID,1.00901,
2001-11-01, 02:43:00,VALID,918.18,VALID,0,VALID,96.8721,VALID,-0.0339617,VALID,20.2037,VALID,137,VALID,0.786328,
2001-11-01, 02:44:00,VALID,918.162,VALID,0,VALID,96.9026,VALID,-0.0509425,VALID,20.1841,VALID,139,VALID,0.696921,
2001-11-01, 02:45:00,VALID,918.142,VALID,0,VALID,96.9192,VALID,-0.0509425,VALID,20.1744,VALID,143,VALID,0.698317,
2001-11-01, 02:46:00,VALID,918.135,VALID,0,VALID,96.9649,VALID,-0.0509425,VALID,20.1617,VALID,148,VALID,1.03005,
2001-11-01, 02:47:00,VALID,918.122,VALID,0,VALID,96.97,VALID,-0.0679233,VALID,20.1587,VALID,140,VALID,0.749599,
2001-11-01, 02:48:00,VALID,918.118,VALID,0,VALID,96.9726,VALID,-0.0169808,VALID,20.1393,VALID,151,VALID,0.866982,
2001-11-01, 02:49:00,VALID,918.097,VALID,0,VALID,97.0171,VALID,-0.0849042,VALID,20.1199,VALID,142,VALID,0.81799,
2001-11-01, 02:50:00,VALID,918.101,VALID,0,VALID,97.0857,VALID,-0.0849042,VALID,20.1167,VALID,160,VALID,0.777995,
2001-11-01, 02:51:00,VALID,918.096,VALID,0,VALID,97.2129,VALID,-0.101885,VALID,20.1063,VALID,145,VALID,1.21234,
2001-11-01, 02:52:00,VALID,918.084,VALID,0,VALID,97.1849,VALID,-0.0509425,VALID,20.1229,VALID,118,VALID,1.06055,
2001-11-01, 02:53:00,VALID,918.092,VALID,0,VALID,97.3019,VALID,-0.0169808,VALID,20.1453,VALID,134,VALID,1.28526,
2001-11-01, 02:54:00,VALID,918.095,VALID,0,VALID,97.2116,VALID,0,VALID,20.1878,VALID,145,VALID,1.00901,
2001-11-01, 02:55:00,VALID,918.079,VALID,0,VALID,97.0539,VALID,-0.0679233,VALID,20.2002,VALID,143,VALID,1.09983,
2001-11-01, 02:56:00,VALID,918.072,VALID,0,VALID,96.9688,VALID,-0.0339617,VALID,20.2067,VALID,148,VALID,1.05078,
2001-11-01, 02:57:00,VALID,918.067,VALID,0,VALID,96.8657,VALID,-0.0169808,VALID,20.2293,VALID,139,VALID,0.869449,
2001-11-01, 02:58:00,VALID,918.064,VALID,0,VALID,96.8098,VALID,-0.0509425,VALID,20.2261,VALID,146,VALID,0.898232,
2001-11-01, 02:59:00,VALID,918.044,VALID,0,VALID,96.7984,VALID,-0.0509425,VALID,20.239,VALID,135,VALID,0.679265,
2001-11-01, 03:00:00,VALID,918.046,VALID,0,VALID,96.7373,VALID,-0.0169808,VALID,20.2452,VALID,143,VALID,1.30595,
2001-11-01, 03:01:00,VALID,918.024,VALID,0,VALID,96.5885,VALID,-0.0509425,VALID,20.2584,VALID,138,VALID,1.05848,
2001-11-01, 03:02:00,VALID,918.014,VALID,0,VALID,96.5326,VALID,-0.0339617,VALID,20.2519,VALID,151,VALID,1.28103,
2001-11-01, 03:03:00,VALID,917.998,VALID,0,VALID,96.544,VALID,-0.0169808,VALID,20.2484,VALID,141,VALID,0.851963,
2001-11-01, 03:04:00,VALID,917.994,VALID,0,VALID,96.5161,VALID,0,VALID,20.2584,VALID,154,VALID,0.968544,
2001-11-01, 03:05:00,VALID,917.988,VALID,0,VALID,96.558,VALID,0,VALID,20.2554,VALID,165,VALID,1.62582,
2001-11-01, 03:06:00,VALID,917.977,VALID,0,VALID,96.5122,VALID,0,VALID,20.2621,VALID,142,VALID,0.933259,
2001-11-01, 03:07:00,VALID,917.973,VALID,0,VALID,96.4118,VALID,0,VALID,20.2584,VALID,141,VALID,0.243189,
2001-11-01, 03:08:00,VALID,917.971,VALID,0,VALID,96.3991,VALID,0.0169808,VALID,20.2449,VALID,176,VALID,0.688453,
2001-11-01, 03:09:00,VALID,917.974,VALID,0,VALID,96.4499,VALID,-0.0169808,VALID,20.2452,VALID,140,VALID,0.837891,
2001-11-01, 03:10:00,VALID,917.97,VALID,0,VALID,96.3546,VALID,0,VALID,20.2357,VALID,128,VALID,0.238932,
2001-11-01, 03:11:00,VALID,917.984,VALID,0,VALID,96.3647,VALID,0,VALID,20.2333,VALID,166,VALID,0.12934,
2001-11-01, 03:12:00,VALID,917.979,VALID,0,VALID,96.4372,VALID,-0.0169808,VALID,20.2236,VALID,209,VALID,0.0573661,
2001-11-01, 03:13:00,VALID,917.981,VALID,0,VALID,96.4677,VALID,-0.0339617,VALID,20.2099,VALID,209,VALID,0.000822368,
2001-11-01, 03:14:00,VALID,917.994,VALID,0,VALID,96.4563,VALID,0,VALID,20.19,VALID,209,VALID,0.00422297,
2001-11-01, 03:15:00,VALID,917.985,VALID,0,VALID,96.3991,VALID,-0.0169808,VALID,20.1811,VALID,209,VALID,0.0010016,
2001-11-01, 03:16:00,VALID,917.996,VALID,0,VALID,96.3736,VALID,-0.0169808,VALID,20.1652,VALID,209,VALID,0.000195313,
2001-11-01, 03:17:00,VALID,918,VALID,0,VALID,96.4423,VALID,0,VALID,20.1326,VALID,209,VALID,0.0376838,
2001-11-01, 03:18:00,VALID,918.012,VALID,0,VALID,96.5288,VALID,-0.0169808,VALID,20.0809,VALID,313,VALID,0.194912,
2001-11-01, 03:19:00,VALID,918.018,VALID,0,VALID,96.6763,VALID,-0.0509425,VALID,20.0518,VALID,341,VALID,0.00200321,
2001-11-01, 03:20:00,VALID,918.023,VALID,0,VALID,96.8848,VALID,-0.0339617,VALID,20.0357,VALID,338,VALID,0,
2001-11-01, 03:21:00,VALID,918.018,VALID,0,VALID,97.0832,VALID,-0.0679233,VALID,20.0166,VALID,320,VALID,0,
2001-11-01, 03:22:00,VALID,918.019,VALID,0,VALID,97.279,VALID,-0.0509425,VALID,20.02,VALID,304,VALID,0,
2001-11-01, 03:23:00,VALID,918.004,VALID,0,VALID,97.3604,VALID,-0.0339617,VALID,19.9977,VALID,304,VALID,0,
2001-11-01, 03:24:00,VALID,918.022,VALID,0,VALID,97.4761,VALID,-0.0509425,VALID,19.9748,VALID,304,VALID,0,
2001-11-01, 03:25:00,VALID,917.997,VALID,0,VALID,97.4354,VALID,-0.0509425,VALID,19.9393,VALID,304,VALID,0,
2001-11-01, 03:26:00,VALID,917.996,VALID,0,VALID,97.354,VALID,0,VALID,19.8841,VALID,304,VALID,0,
2001-11-01, 03:27:00,VALID,917.988,VALID,0,VALID,97.354,VALID,-0.0339617,VALID,19.8419,VALID,304,VALID,0,
2001-11-01, 03:28:00,VALID,917.994,VALID,0,VALID,97.2421,VALID,-0.0509425,VALID,19.8165,VALID,304,VALID,0,
2001-11-01, 03:29:00,VALID,918.013,VALID,0,VALID,97.3146,VALID,-0.0509425,VALID,19.7613,VALID,304,VALID,0,
2001-11-01, 03:30:00,VALID,918.015,VALID,0,VALID,97.4761,VALID,-0.0509425,VALID,19.7482,VALID,304,VALID,0,
2001-11-01, 03:31:00,VALID,918.027,VALID,0,VALID,97.5448,VALID,0,VALID,19.7355,VALID,304,VALID,0,
2001-11-01, 03:32:00,VALID,918.037,VALID,0,VALID,97.6936,VALID,0,VALID,19.7194,VALID,304,VALID,0,
2001-11-01, 03:33:00,VALID,918.047,VALID,0,VALID,97.7889,VALID,-0.0169808,VALID,19.736,VALID,14,VALID,0,
2001-11-01, 03:34:00,VALID,918.044,VALID,0,VALID,97.7991,VALID,-0.0509425,VALID,19.7034,VALID,65,VALID,0,